Other Public Products
Issued by NWS Grand Forks, ND

Home | Current Version | Previous Version | Text Only | Print | Product List | Glossary Off
Versions: 1 2 3 4 5 6 7 8 9 10 11 12 13 14 15 16 17 18 19 20 21 22 23 24 25 26 27 28 29 30 31 32 33 34 35 36 37 38 39 40 41 42 43 44 45 46 47 48 49 50

000
FPUS83 KFGF 190131
OPUFGF
PRAIRIE TO PINES WEATHER ROUNDUP
NATIONAL WEATHER SERVICE EASTERN NORTH DAKOTA/GRAND FORKS ND
800 PM CDT THU SEP 18 2014

 **SATELLITE DATA USED TO AUGMENT SKY COVER AT AUTOMATED STATIONS**
 *****  WEATHER ACROSS EASTERN NORTH DAKOTA  *****

CITY           SKY/WX    TMP DP  RH WIND       PRES   REMARKS
GRAND FORKS    MOCLDY    70  60  70 SE13      29.71F
GRAND FORKS AF MOCLDY    69  62  79 SE12      29.71F
GRAND CITY NWS   N/A     68 N/A N/A SE18        N/A
BUXTON           N/A     69  63  81 SE12        N/A
DEVILS LAKE    CLOUDY    68  57  68 S15       29.64F
FARGO          PTCLDY    73  57  57 S15       29.76F
WAHPETON ARPT  CLEAR     68  54  60 SE12      29.81F
$$

 *****  WEATHER ACROSS CENTRAL AND WESTERN NORTH DAKOTA  *****

CITY           SKY/WX    TMP DP  RH WIND       PRES   REMARKS
JAMESTOWN      CLOUDY    70  60  70 S13       29.73R
BISMARCK       CLOUDY    74  63  68 S5        29.70R
MINOT          CLOUDY    76  61  59 S16G26    29.57F
MINOT AFB      CLOUDY    75  64  68 SW16      29.56F
GARRISON         N/A     73  64  73 S13       29.63F
WILLISTON      CLOUDY    72  52  49 CALM      29.59S
DICKINSON      CLOUDY    68  61  78 S8        29.67F
HETTINGER      CLOUDY    73  61  65 SE8       29.71F
$$

 *****  OTHER OBSERVATIONS NORTHEAST NORTH DAKOTA  *****

CITY           SKY/WX    TMP DP  RH WIND       PRES   REMARKS
WALHALLA         N/A     66  59  77 S18       29.64F
LANGDON        FAIR      66  57  72 S20       29.65F
CAVALIER       FAIR      66  57  72 S17G26    29.66F
GRAFTON        FAIR      66  59  77 S15       29.69F
CANDO          FAIR      66  59  77 S12       29.64S
FORT TOTTEN      N/A     73  60  63 S14       29.95
ROLLA          FAIR      70  59  68 S15G23    29.63S
RUGBY          FAIR      72  63  73 S12G17    29.61S
 ***** THE ABOVE OBSERVATIONS ARE NON NWS ARE NOT QUALITY
        CONTROLLED AND MAY MIS-REPORT RAIN FOR SNOW...
$$

 *****  OTHER OBSERVATIONS SOUTHEAST NORTH DAKOTA *****

CITY           SKY/WX    TMP DP  RH WIND       PRES   REMARKS
COOPERSTOWN    NOT AVBL
VALLEY CITY    FAIR      70  64  83 S14       29.75R
OAKES            N/A     66  63  88 SE10      29.76F
GWINNER        CLEAR     70  61  73 S12       29.79S
BUFFALO          N/A     69  59  69 S12         N/A
WYNDMERE         N/A     70  59  68 SE7         N/A
 ***** THE ABOVE OBSERVATIONS ARE NON NWS ARE NOT QUALITY
       CONTROLLED AND MAY MIS-REPORT RAIN FOR SNOW...
$$

  *****  WEATHER ACROSS NORTHERN MINNESOTA  *****

CITY           SKY/WX    TMP DP  RH WIND       PRES   REMARKS
FLAG ISLAND    MOCLDY    61  54  77 SE20      29.76F
WARROAD        MOCLDY    61  55  82 SE15      29.79F
ROSEAU         MOCLDY    63  54  72 S15G22    29.76F
HALLOCK        CLOUDY    70  57  64 S15       29.69F
THF RVR FALLS  MOCLDY    66  55  68 SE14G22   29.77F
HALSTAD          N/A     68  54  59 S12         N/A
FOSSTON        MOCLDY    61  54  77 SE12      29.83S
BAUDETTE       MOCLDY    60  52  74 S8        29.84S
WASKISH        MOCLDY    59  54  82 SE3       29.86F
CROOKSTON      MOCLDY    66  57  72 S17       29.76F
$$
  *****  WEATHER ACROSS CENTRAL AND WEST MINNESOTA  *****

CITY           SKY/WX    TMP DP  RH WIND       PRES   REMARKS
BEMIDJI        MOCLDY    57  53  84 SE12      29.89R
PARK RAPIDS    MOCLDY    61  55  81 SE12      29.88F
WADENA         PTCLDY    63  55  77 SE8       29.89S
DETROIT LAKES  PTCLDY    64  57  77 S12       29.86S
MOORHEAD       PTCLDY    72  59  64 S13       29.79F
FERGUS FALLS   PTCLDY    66  54  63 SE13      29.84S
ELBOW LAKE     FAIR      65  55  69 SE13      29.86F
MORRIS MN      PTCLDY    66  55  68 SE12      29.87F
STAPLES        MOCLDY    61  55  82 SE6       29.90F
WHEATON        CLEAR     64  55  72 SE15      29.85F
$$
  *****  WEATHER ELSEWHERE ACROSS MINNESOTA  *****

CITY           SKY/WX    TMP DP  RH WIND       PRES   REMARKS
DULUTH         CLOUDY    46  42  86 E13       30.04S
INTRNTL FALLS  PTCLDY    56  50  80 SE9       29.89F
ELY            CLOUDY    45  41  87 S8        30.03R
CLOQUET        CLOUDY    46  43  87 E8        30.03S
BRAINERD       PTCLDY    58  54  86 SE9       29.94F
HIBBING        CLOUDY    50  46  86 S10       30.01S
ALEXANDRIA     MOCLDY    64  54  69 SE9       29.91F
SAINT CLOUD    CLEAR     66  53  63 SE5       29.96S
MINNEAPOLIS    MOCLDY    67  56  67 SE8       30.00R
$$

  *****  WEATHER ACROSS SOUTH DAKOTA  *****

CITY           SKY/WX    TMP DP  RH WIND       PRES   REMARKS
SIOUX FALLS    MOCLDY    69  55  60 SE12      29.92R
BROOKINGS      NOT AVBL
WATERTOWN      PTCLDY    66  56  70 S12       29.87F
HURON          PTCLDY    70  57  63 SE13G20   29.83F
SISSETON         N/A     69  58  67 S10       29.81F
ABERDEEN       MOCLDY    69  60  73 S10       29.78F
MITCHELL       PTCLDY    70  59  68 SE12      29.85S
PIERRE         PTCLDY    74  63  68 SE9       29.72S
MOBRIDGE       CLOUDY    71  61  70 SE12      29.69F
RAPID CITY     PTCLDY    78  54  43 SE6       29.72S
$$

  *****  SOME WEATHER IN NEARBY STATES *****

CITY           SKY/WX    TMP DP  RH WIND       PRES   REMARKS
GLASGOW MT     MOCLDY    77  51  40 CALM      29.59F
GREAT FALLS MT CLEAR     71  47  42 SW12      29.70R
CHEYENNE WY    CLEAR     77  33  20 S9        29.99S
SCOTTSBLUFF NE CLEAR     77  50  38 E10       29.83R
OMAHA NE       PTCLDY    68  54  60 SE10      29.97R
DES MOINES IA  CLEAR     66  54  65 SE6       30.02S
DAVENPORT IA   CLEAR     61  50  67 E6        30.08S
CHICAGO IL     PTCLDY    60  53  77 N6        30.13R
EAU CLAIRE WI  NOT AVBL
LA CROSSE WI   CLEAR     63  55  75 SE8       30.06S
$$

  *****  SOME NATIONAL WEATHER *****

CITY           SKY/WX    TMP DP  RH WIND       PRES   REMARKS
LA GUARDIA NY  PTCLDY    70  51  51 E6        30.04R
RALEIGH NC     CLOUDY    72  61  68 E5        30.02R
ATLANTA GA     PTCLDY    77  64  64 S8        29.98R
NEW ORLEANS LA LGT RAIN  79  67  66 SE3       29.89R
OKLAHOMA CITY  PTCLDY    76  66  71 SE9       29.91R
ALBUQUERQUE NM PTCLDY    74  56  53 S15       29.99R
SALT LAKE CITY PTCLDY    88  43  20 S10       29.75F
LOS ANGELES CA MOSUNNY   72  64  76 W15       29.82S
BOISE ID       PTCLDY    81  42  25 NW10      29.77R
SEATTLE WA     PTSUNNY   64  55  72 SW10G18   29.91R
$$

*** WEATHER ACROSS MANITOBA...SASKATCHEWAN AND ONTARIO ***
                ***ONTARIO***

CITY           SKY/WX    TMP DP  RH WIND       PRES   REMARKS
GERALDTON      MOCLDY    39  30  70 S7        30.11R
THUNDER BAY    CLOUDY    45  39  81 SE6       30.11S
SIOUX LOOKOUT  PTCLDY    50  43  76 S9        29.91
TORONTO        CLEAR     50  39  66 N13       30.20R
BIG TROUT LK   PTCLDY    50  34  53 S16       29.81F
PICKLE LAKE    MOCLDY    45  34  65 S8        29.92F
DRYDEN         CLOUDY    50  45  81 SE13      29.88F
KENORA         MOCLDY    52  46  82 SE9       29.82F
$$
                *** MANITOBA***

CITY           SKY/WX    TMP DP  RH WIND       PRES   REMARKS
BRANDON        CLOUDY    66  59  77 S8        29.55F
DAUPHIN        PTCLDY    70  55  60 SW5       29.48F
ISLAND LAKE    CLOUDY    55  45  67 S12       29.61F
PILOT MOUND    NOT AVBL
THE PAS        NOT AVBL
THOMPSON       LGT RAIN  54  54 100 S7        29.47
WINNIPEG       MOCLDY    64  55  72 SE16      29.65S
LYNN LAKE      CLOUDY    50  46  87 NW7       29.45S
CHURCHILL      LGT RAIN  41  39  93 S10       29.45F
GILLAM         LGT RAIN  48  45  87 S15G22    29.50F
$$
                ***SASKATCHEWAN***

CITY           SKY/WX    TMP DP  RH WIND       PRES   REMARKS
ESTEVAN        MOCLDY    68  55  64 SW9       29.54F
KINDERSLEY     MOCLDY    68  50  52 N9        29.52S
LLOYDMINSTER   MOCLDY    64  46  52 N5        29.55R
PRINCE ALBERT  MOCLDY    59  52  77 NW5       29.50R
REGINA         CLOUDY    68  57  68 SW8       29.49S
YORKTON        PTCLDY    66  57  72 S8        29.47F


USA.gov is the U.S. government's official web portal to all federal, state and local government web resources and services.